GW3615 Weather Reports


Display with metric or nautical units.
time (UTC)temp
F
wind
direction
speed
MPH
gust
MPH
rain 1hr
in
rain 24hr
in
rain mn
in
humidity
%
barometer
mb
20260504191727 84 168 0.0 1.0 0.00 0.00 0.00 83 1007.5
20260504191227 84 171 0.0 2.0 0.00 0.00 0.00 84 1007.5
20260504190729 84 198 3.0 6.0 0.00 0.00 0.00 83 1007.5
20260504190228 84 206 0.0 2.0 0.00 0.00 0.00 83 1007.8
20260504185727 84 112 1.0 2.0 0.00 0.00 0.00 83 1007.5
20260504185231 84 118 0.0 1.0 0.00 0.00 0.00 83 1007.5
20260504184728 84 105 0.0 2.0 0.00 0.00 0.00 82 1007.5
20260504184229 84 99 0.0 1.0 0.00 0.00 0.00 82 1007.5
20260504183727 84 100 1.0 3.0 0.00 0.00 0.00 83 1007.5
20260504183228 84 157 2.0 3.0 0.00 0.00 0.00 83 1007.8
20260504182730 84 114 0.0 1.0 0.00 0.00 0.00 82 1007.5
20260504182229 85 202 1.0 2.0 0.00 0.00 0.00 82 1007.5
20260504181729 85 148 0.0 2.0 0.00 0.00 0.00 82 1007.5
20260504181227 84 91 0.0 2.0 0.00 0.00 0.00 82 1007.5
20260504180729 85 165 3.0 5.0 0.00 0.00 0.00 82 1007.8
20260504180228 85 196 1.0 2.0 0.00 0.00 0.00 82 1007.8
20260504175729 85 167 1.0 1.0 0.00 0.00 0.00 82 1007.8
20260504175227 85 136 0.0 1.0 0.00 0.00 0.00 82 1007.8
20260504174727 85 137 1.0 1.0 0.00 0.00 0.00 82 1007.8
20260504174228 85 164 0.0 2.0 0.00 0.00 0.00 82 1007.8
20260504173727 85 184 1.0 3.0 0.00 0.00 0.00 82 1007.8
20260504173227 85 196 1.0 3.0 0.00 0.00 0.00 82 1007.8
20260504172728 85 175 2.0 5.0 0.00 0.00 0.00 82 1008.1
20260504172229 85 167 3.0 3.0 0.00 0.00 0.00 82 1008.1
20260504171727 85 163 1.0 2.0 0.00 0.00 0.00 82 1008.1
20260504171231 85 172 1.0 2.0 0.00 0.00 0.00 81 1007.8
20260504170731 85 191 1.0 2.0 0.00 0.00 0.00 81 1007.8
20260504170230 85 143 1.0 5.0 0.00 0.00 0.00 81 1007.8
20260504160229 85 130 2.0 2.0 0.00 0.00 0.00 81 1007.1
20260504150727 86 84 3.0 5.0 0.00 0.00 0.00 76 1006.1
20260504150228 86 85 0.0 2.0 0.00 0.00 0.00 75 1006.1
20260504141230 86 102 0.0 3.0 0.00 0.00 0.00 72 1005.8
20260504140727 86 123 1.0 2.0 0.00 0.00 0.00 72 1005.4
20260504140228 86 75 0.0 3.0 0.00 0.00 0.00 72 1005.1
20260504130727 87 102 3.0 5.0 0.00 0.00 0.00 69 1004.7
20260504130230 88 101 3.0 7.0 0.00 0.00 0.00 69 1004.4
20260504120228 91 125 1.0 10.0 0.00 0.00 0.00 63 1004.1
20260504110227 93 214 7.0 8.0 0.00 0.00 0.00 54 1004.1
20260504100229 98 168 4.0 8.0 0.00 0.00 0.00 47 1004.4
20260504081730 100 195 3.0 6.0 0.00 0.00 0.00 42 1005.8
20260504081227 100 187 3.0 5.0 0.00 0.00 0.00 42 1005.8
20260504080727 100 243 3.0 8.0 0.00 0.00 0.00 39 1005.8
20260504080229 100 125 4.0 8.0 0.00 0.00 0.00 38 1006.1
20260504070228 99 257 3.0 5.0 0.00 0.00 0.00 44 1006.8
20260504060227 97 196 1.0 3.0 0.00 0.00 0.00 48 1007.8
20260504050727 95 283 4.0 6.0 0.00 0.00 0.00 51 1008.1
20260504050228 94 280 3.0 6.0 0.00 0.00 0.00 52 1008.1
20260504045727 94 209 2.0 6.0 0.00 0.00 0.00 54 1008.1
20260504044752 93 212 1.0 8.0 0.00 0.00 0.00 55 1008.5
20260504044228 94 230 3.0 10.0 0.00 0.00 0.00 53 1008.5
20260504043728 94 168 3.0 7.0 0.00 0.00 0.00 52 1008.5
20260504043228 95 232 7.0 9.0 0.00 0.00 0.00 52 1008.5
20260504042730 94 234 2.0 6.0 0.00 0.00 0.00 53 1008.5
20260504042229 93 269 3.0 7.0 0.00 0.00 0.00 53 1008.1
20260504041728 93 255 1.0 7.0 0.00 0.00 0.00 56 1008.5
20260504041230 93 307 2.0 5.0 0.00 0.00 0.00 57 1008.5
20260504040727 92 289 4.0 6.0 0.00 0.00 0.00 58 1008.5
20260504040227 92 183 3.0 3.0 0.00 0.00 0.00 59 1008.5
20260504035728 91 250 3.0 5.0 0.00 0.00 0.00 59 1008.5
20260504035227 91 260 4.0 6.0 0.00 0.00 0.00 60 1008.5
20260504034727 91 267 1.0 5.0 0.00 0.00 0.00 61 1008.5
20260504034227 90 258 1.0 3.0 0.00 0.00 0.00 62 1008.5
20260504033727 90 250 2.0 6.0 0.00 0.00 0.00 64 1008.5
20260504033230 90 316 2.0 6.0 0.00 0.00 0.00 64 1008.5
20260504032728 90 327 3.0 5.0 0.00 0.00 0.00 64 1008.8
20260504032228 89 243 0.0 3.0 0.00 0.00 0.00 66 1008.5
20260504031727 88 203 2.0 6.0 0.00 0.00 0.00 67 1008.5
20260504031227 89 283 2.0 5.0 0.00 0.00 0.00 66 1008.5
20260504030727 89 263 2.0 2.0 0.00 0.00 0.00 66 1008.5
20260504030228 89 244 1.0 5.0 0.00 0.00 0.00 67 1008.5
20260504025727 89 266 1.0 5.0 0.00 0.00 0.00 68 1008.5
20260504025228 89 244 2.0 6.0 0.00 0.00 0.00 68 1008.1
20260504024727 88 247 4.0 6.0 0.00 0.00 0.00 74 1007.8
20260504024227 88 147 4.0 6.0 0.00 0.00 0.00 74 1008.1
20260504023727 88 142 4.0 8.0 0.00 0.00 0.00 74 1007.8
20260504023227 88 172 4.0 6.0 0.00 0.00 0.00 74 1007.8
20260504022728 87 212 2.0 5.0 0.00 0.00 0.00 72 1007.8
20260504022228 87 192 1.0 5.0 0.00 0.00 0.00 72 1007.5
20260504021727 86 250 0.0 1.0 0.00 0.00 0.00 72 1007.5
20260504021227 86 251 1.0 1.0 0.00 0.00 0.00 72 1007.5
20260504020727 85 262 0.0 1.0 0.00 0.00 0.00 72 1007.5
20260504020227 85 280 1.0 1.0 0.00 0.00 0.00 72 1007.5
20260504015727 85 281 2.0 2.0 0.00 0.00 0.00 72 1007.1
20260504015227 84 259 0.0 3.0 0.00 0.00 0.00 74 1007.1
20260504014727 84 262 0.0 3.0 0.00 0.00 0.00 77 1007.5
20260504014227 84 269 0.0 0.0 0.00 0.00 0.00 78 1007.1
20260504013728 84 316 0.0 2.0 0.00 0.00 0.00 78 1007.5
20260504013228 84 285 3.0 3.0 0.00 0.00 0.00 78 1007.5
20260504012727 84 294 1.0 3.0 0.00 0.00 0.00 78 1007.5
20260504012227 83 280 0.0 1.0 0.00 0.00 0.00 79 1007.5
20260504011728 83 250 0.0 1.0 0.00 0.00 0.00 80 1007.1
20260504011227 83 258 0.0 2.0 0.00 0.00 0.00 80 1007.1
20260504010727 83 244 0.0 1.0 0.00 0.00 0.00 80 1007.1
20260504010227 83 244 0.0 1.0 0.00 0.00 0.00 80 1007.1
20260504005727 83 240 0.0 1.0 0.00 0.00 0.00 80 1007.1
20260504005227 82 231 1.0 1.0 0.00 0.00 0.00 80 1006.8
20260504004727 82 230 1.0 1.0 0.00 0.00 0.00 80 1006.8
20260504004227 82 232 0.0 0.0 0.00 0.00 0.00 80 1006.8
20260504003727 82 233 0.0 0.0 0.00 0.00 0.00 80 1006.8
20260504003227 82 233 0.0 0.0 0.00 0.00 0.00 80 1006.8
20260504002727 82 254 0.0 1.0 0.00 0.00 0.00 80 1006.8
20260504002227 82 254 1.0 1.0 0.00 0.00 0.00 80 1006.8
20260504001728 82 251 0.0 1.0 0.00 0.00 0.00 80 1006.8
20260504001227 82 251 1.0 1.0 0.00 0.00 0.00 81 1006.8
20260504000728 82 238 0.0 1.0 0.00 0.00 0.00 81 1006.8
20260504000227 82 252 0.0 1.0 0.00 0.00 0.00 81 1006.8
20260503235727 82 254 1.0 2.0 0.00 0.00 0.00 82 1006.4
20260503235228 82 254 0.0 1.0 0.00 0.00 0.00 82 1006.1
20260503234727 82 200 0.0 0.0 0.00 0.00 0.00 82 1006.4
20260503234227 82 199 0.0 1.0 0.00 0.00 0.00 82 1006.4
20260503233728 82 197 0.0 1.0 0.00 0.00 0.00 82 1006.1
20260503233228 82 172 0.0 1.0 0.00 0.00 0.00 82 1006.4
20260503232726 82 172 1.0 1.0 0.00 0.00 0.00 81 1006.1
20260503232228 82 172 0.0 0.0 0.00 0.00 0.00 81 1006.1
20260503231727 82 172 1.0 1.0 0.00 0.00 0.00 80 1005.8
20260503231227 82 171 0.0 1.0 0.00 0.00 0.00 80 1005.8
20260503230728 82 171 0.0 0.0 0.00 0.00 0.00 80 1005.8
20260503230228 82 149 0.0 1.0 0.00 0.00 0.00 80 1005.8
20260503225728 82 203 0.0 1.0 0.00 0.00 0.00 79 1005.8
20260503225227 82 261 0.0 2.0 0.00 0.00 0.00 79 1005.8
20260503224727 82 238 1.0 1.0 0.00 0.00 0.00 79 1005.8
20260503224227 82 262 1.0 2.0 0.00 0.00 0.00 79 1005.8
20260503223727 82 254 0.0 2.0 0.00 0.00 0.00 79 1005.8
20260503223226 82 259 0.0 3.0 0.00 0.00 0.00 78 1005.8
20260503222727 82 236 0.0 2.0 0.00 0.00 0.00 78 1005.8
20260503222227 82 254 0.0 1.0 0.00 0.00 0.00 78 1005.4
20260503221727 82 110 0.0 1.0 0.00 0.00 0.00 78 1005.8
20260503221227 82 105 0.0 0.0 0.00 0.00 0.00 78 1005.4
20260503220729 82 105 0.0 0.0 0.00 0.00 0.00 77 1005.4
20260503220227 82 104 0.0 2.0 0.00 0.00 0.00 77 1005.4
20260503215727 82 77 0.0 2.0 0.00 0.00 0.00 77 1005.1
20260503215227 82 58 0.0 1.0 0.00 0.00 0.00 77 1005.1
20260503214727 82 58 1.0 1.0 0.00 0.00 0.00 77 1005.4
20260503214227 83 46 0.0 0.0 0.00 0.00 0.00 77 1005.1
20260503213728 83 22 0.0 1.0 0.00 0.00 0.00 76 1005.1
20260503213227 83 22 0.0 0.0 0.00 0.00 0.00 76 1005.1
20260503212727 83 21 0.0 1.0 0.00 0.00 0.00 76 1004.7
20260503212227 83 350 0.0 1.0 0.00 0.00 0.00 75 1004.7
20260503211727 83 349 0.0 0.0 0.00 0.00 0.00 75 1004.7
20260503211227 83 349 0.0 1.0 0.00 0.00 0.00 75 1004.7
20260503210727 83 350 0.0 1.0 0.00 0.00 0.00 75 1004.7
20260503210227 83 350 0.0 1.0 0.00 0.00 0.00 75 1004.7
20260503205727 83 350 0.0 0.0 0.00 0.00 0.00 75 1004.7
20260503205228 83 350 0.0 0.0 0.00 0.00 0.00 75 1004.7
20260503204728 83 349 0.0 1.0 0.00 0.00 0.00 74 1004.7
20260503204228 83 60 0.0 1.0 0.00 0.00 0.00 74 1004.7
20260503203727 83 86 0.0 1.0 0.00 0.00 0.00 75 1004.7
20260503203227 83 73 1.0 2.0 0.00 0.00 0.00 75 1004.7
20260503202730 83 45 0.0 1.0 0.00 0.00 0.00 75 1004.7
20260503202228 83 46 0.0 1.0 0.00 0.00 0.00 75 1004.7
20260503201727 83 161 0.0 1.0 0.00 0.00 0.00 75 1004.7
20260503201227 83 160 0.0 0.0 0.00 0.00 0.00 75 1005.1
20260503200727 83 193 0.0 1.0 0.00 0.00 0.00 75 1004.7
20260503200229 83 167 1.0 5.0 0.00 0.00 0.00 75 1004.4
20260503195728 83 178 1.0 2.0 0.00 0.00 0.00 75 1004.1
20260503195227 83 175 2.0 5.0 0.00 0.00 0.00 74 1004.7
20260503194727 83 179 1.0 3.0 0.00 0.00 0.00 74 1004.4
20260503194228 83 159 1.0 3.0 0.00 0.00 0.00 74 1004.7
20260503193727 83 227 3.0 6.0 0.00 0.00 0.00 74 1004.4
20260503193227 83 214 3.0 6.0 0.00 0.00 0.00 74 1004.4
20260503192728 83 139 1.0 2.0 0.00 0.00 0.00 74 1004.1
20260503192228 83 250 2.0 6.0 0.00 0.00 0.00 75 1004.4